Miscellaneous Local Product
Issued by NWS Hastings, NE

Home | Current Version | Previous Version | Graphics & Text | Print | Product List | Glossary On
Versions: 1 2 3 4 5 6 7 8 9 10 11 12 13 14 15 16 17 18 19 20 21 22 23 24 25 26 27 28 29 30 31 32 33 34 35 36 37 38 39 40 41 42 43 44 45 46 47 48 49 50
139
AXUS43 KGID 011302
MISGRI

GID CWA HOURLY WEATHER ROUNDUP
NATIONAL WEATHER SERVICE HASTINGS NE
800 AM CDT SAT OCT 01 2016

NOTE: "FAIR" INDICATES FEW OR NO CLOUDS BELOW 12,000 FEET WITH NO
SIGNIFICANT WEATHER AND/OR OBSTRUCTIONS TO VISIBILITY.

...SOUTH CENTRAL NEBRASKA...

CITY           SKY/WX    TMP DP  RH WIND       PRES   REMARKS
GRAND ISLAND   PTCLDY    50  47  89 CALM      30.15S
HASTINGS       PTCLDY    49  45  86 CALM      30.16R
KEARNEY        PTCLDY    48  43  81 CALM      30.14R
ORD            PTCLDY    43  39  86 CALM      30.13S
YORK           PTCLDY    46  46 100 CALM      30.16R
AURORA         PTCLDY    49  49 100 CALM      30.15S
LEXINGTON      CLOUDY    46  43  90 CALM      30.13S
HOLDREGE       CLOUDY    47  44  86 CALM      30.13S
HEBRON         CLOUDY    48  47  96 CALM      30.15R

...NEBRASKA PANHANDLE...

CITY           SKY/WX    TMP DP  RH WIND       PRES   REMARKS
CHADRON        CLEAR     49  44  83 W7        30.03S
ALLIANCE       CLEAR     44  42  93 SE6       30.07S
SCOTTSBLUFF    CLEAR     47  43  86 CALM      30.08R
SIDNEY         CLEAR     40  39  97 SW6       30.11S

...WESTERN AND NORTH CENTRAL NEBRASKA...

CITY           SKY/WX    TMP DP  RH WIND       PRES   REMARKS
VALENTINE      CLOUDY    47  43  86 E7        30.07F
AINSWORTH      CLEAR     50  45  84 S8        30.09F
ONEILL         PTCLDY    46  42  86 S3        30.13S
BROKEN BOW     PTCLDY    42  41  96 CALM      30.13S
IMPERIAL       CLEAR     46  43  89 SE6       30.11S
NORTH PLATTE   PTCLDY    48  44  86 E6        30.12S
MCCOOK         CLOUDY    48  45  89 CALM      30.13R

...EASTERN NEBRASKA...

CITY           SKY/WX    TMP DP  RH WIND       PRES   REMARKS
NORFOLK        CLEAR     45  44  97 CALM      30.15S FOG
SO SIOUX CITY  CLOUDY    58  55  90 CALM      30.15S
TEKAMAH        CLOUDY    57  54  89 W3        30.15S
COLUMBUS         N/A     45  36  70 CALM      30.16S VSB 1/4
ALBION         MOCLDY    45  43  94 CALM      30.15S
OMAHA EPPLEY   CLOUDY    59  54  83 N3        30.15S
OFFUTT AFB     CLOUDY    58  58  99 NE2       30.14S
MILLARD        CLOUDY    59  54  84 CALM      30.15S
LINCOLN        PTCLDY    47  45  93 W3        30.17S FOG
NEBRASKA CITY  CLOUDY    55  55  98 CALM      30.15R
BEATRICE       FOG       47  47 100 CALM      30.15R VSB 1
FALLS CITY     CLOUDY    56  54  93 CALM      30.13S

...NORTHERN KANSAS...

CITY           SKY/WX    TMP DP  RH WIND       PRES   REMARKS
GOODLAND       CLOUDY    46  42  86 CALM      30.12R
HILL CITY      CLEAR     44  42  93 CALM      30.14R
NORTON         SUNNY     45  39  81 E5        30.12S
PHILLIPSBURG   CLEAR     45  45 100 CALM      30.14R
SMITH CENTER   CLEAR     46  45  93 CALM      30.14R FOG
BELOIT         CLEAR     45  43  93 CALM      30.13S
HAYS           CLEAR     45  36  70 CALM      30.13R
RUSSELL        CLEAR     50  47  89 S6        30.11R
CONCORDIA      PTCLDY    47  47 100 E3        30.13S
SALINA         MOCLDY    51  48  89 CALM      30.13S
TOPEKA         PTCLDY    51  49  92 CALM      30.14R FOG



USA.gov is the U.S. government's official web portal to all federal, state and local government web resources and services.